Location: College Rock
(37.2713°N, 119.1740°W)
Time: 04:12:41
(UTC+00:00)

ARGOS Delta rocket - Pass Details

Date: 29 October 2020
Orbit: 636 x 837 km, 96.5° (Epoch: 27 November)

Event Time Altitude Azimuth Distance (km) Brightness Sun altitude
Rises 12:37:39 0° 13° (NNE) 3,365 7.5 -20.6°
Reaches altitude 10° 12:40:02 10° 16° (NNE) 2,441 6.8 -20.2°
Maximum altitude 12:45:28 69° 99° (E) 893 4.5 -19.1°
Drops below altitude 10° 12:50:54 10° 183° (S) 2,432 6.6 -18.0°
Sets 12:53:15 0° 185° (S) 3,350 7.3 -17.5°
